Starlink 33566

operational
NORAD ID: 62100 Int'l Des: 2024-220 Owner: SPXS Country: US Constellation: starlink
LEOCIRCULAR

About Starlink 33566

Description loading...

Live Position

Loading 3D Globe...

Upcoming Passes

Altitude History

Altitude vs Time

uPlot chart will show altitude changes over time

Two-Line Element Set

1 62100U 24220N 25304.43863669 .00029080 00000-0 10614-2 0 9991
2 62100 43.0038 200.7793 0001621 282.6950 77.3720 15.27602113 53595
Epoch: Oct 31, 2025 • Age: 10 hours

Current Status

Altitude 489.8 km
Velocity 7.62 km/s
Sub-Earth Point -28.37°S, 59.31°E
Launch Date Nov 25, 2024
Age 0.9 years
Type internet

Technical Details

Classification Payload
Mass 530.00 kg
Dry Mass 500.00 kg
Total Mass 530.00 kg
Length 0.30 m
Diameter 4.10 m
Span 29.00 m
Shape Box + pan
Manufacturer SPXS
Bus Type Starlink V2MO
Phase Status In Orbit
Owner/State SPXS/US

Large Constellations

Loading constellations...